Powrót do katalogu

STARLINK-35373

AktywnyŁącznośćSSO
NORAD 65792·PAYLOAD·🇺🇸 United States

Wystrzelony Sep 26, 2025 z Vandenberg Space Force Base

Loading…

Następne Przeloty (najbliższe 24 godziny)

TLE

ŚwieżeSource: CelesTrak SupGP

Epoka: Sep 14, 2026, 21:24 UTC

1 65792C 25218B   26257.89215278  .00013526  00000+0  42005-3 0  2578
2 65792  97.2846 115.3758 0002060 102.5001 354.6297 15.33418507    18

Śledź STARLINK-35373 w czasie rzeczywistym z AllMySat

Download on the App Store